Theta_e
316 317 319 317 321 318 317 316 312 314 315 315 312 314 317 319 318 321 327 335 338 337 337 336 337 337 336 337 338 338 337 335 335 333 332 330 329 330 330 329 329 329 331 330 328 332 330 331 328
317 319 318 312 320 319 317 312 315 313 318 315 315 317 321 324 323 327 333 336 338 336 337 336 336 337 334 335 338 338 337 335 333 332 331 329 328 327 327 328 328 328 329 327 330 330 329 329 327
318 317 317 315 313 319 316 312 313 313 314 312 318 318 320 324 324 329 329 336 339 337 337 336 336 336 332 335 337 338 336 334 333 332 330 327 325 324 325 325 326 327 327 327 328 329 329 327 324
317 314 309 316 316 312 313 313 312 315 314 312 317 322 320 323 323 326 329 334 338 337 337 336 335 334 331 335 336 337 337 334 332 329 327 325 323 322 321 320 320 322 325 325 324 325 326 320 315
311 310 314 312 312 311 309 310 310 314 312 314 314 318 323 325 324 330 334 334 337 337 337 336 334 331 330 335 336 336 337 334 329 323 322 321 319 318 317 317 316 317 318 319 319 319 317 312 309
311 309 315 315 312 311 310 310 310 311 310 313 317 321 321 324 328 333 336 337 338 337 337 336 334 331 331 334 335 335 337 335 328 323 324 324 322 321 322 323 322 319 316 315 313 308 306 305 304
311 310 312 311 312 312 312 307 310 310 311 314 315 319 318 321 329 333 338 338 337 337 337 336 335 333 332 332 334 334 336 335 328 324 323 322 321 321 320 319 319 318 318 317 312 305 302 301 301
305 307 309 309 311 313 310 308 309 309 310 309 312 317 319 323 330 334 338 337 338 335 337 337 336 335 334 332 332 334 334 335 329 325 323 322 321 321 320 319 319 318 317 317 316 313 308 304 302
302 307 309 310 309 312 308 311 307 307 309 309 309 311 313 323 330 333 338 337 337 335 336 335 335 336 335 334 333 332 333 334 329 326 325 325 322 321 320 320 319 318 317 316 315 315 314 313 309
305 305 306 306 306 310 310 310 309 310 310 310 310 308 310 324 330 332 336 335 336 334 334 335 335 337 336 334 334 333 333 333 330 326 325 324 323 321 321 320 319 318 317 315 314 314 314 313 311
306 307 306 308 308 309 311 310 307 309 311 309 311 309 311 325 328 331 334 336 334 333 333 334 332 336 336 334 334 334 334 333 331 328 326 324 323 322 321 320 320 318 317 316 315 314 313 312 310
311 309 307 309 310 310 311 309 309 307 311 309 307 307 312 324 326 328 331 335 335 335 332 332 333 335 335 332 334 333 333 333 332 329 328 326 324 323 321 321 320 318 317 315 314 312 312 310 309
311 310 310 309 310 309 309 310 310 308 306 307 306 307 310 320 326 327 329 333 334 333 333 332 333 333 333 333 333 333 333 333 332 330 328 327 326 324 321 320 320 318 316 314 311 310 310 309 308
309 310 310 309 310 310 311 310 309 309 306 307 306 306 308 312 322 323 327 329 329 331 331 331 329 330 331 330 332 334 334 333 332 331 329 327 326 325 323 320 319 317 314 310 309 309 308 307 306
309 312 310 310 309 310 309 311 310 308 307 307 306 305 305 308 313 321 327 327 327 326 326 327 327 328 330 330 330 330 334 333 332 331 329 327 326 325 323 321 318 316 313 306 307 308 306 304 302
311 309 312 310 309 310 310 312 310 306 306 308 306 305 304 305 307 313 321 325 324 322 322 322 322 325 327 328 329 331 332 331 332 331 330 328 327 325 322 320 316 315 304 305 307 305 303 299 296
308 309 311 310 308 310 310 312 310 306 306 307 306 305 305 304 304 307 311 318 319 319 318 317 317 319 324 326 327 328 329 330 327 329 328 328 326 323 321 320 316 302 302 305 306 302 302 297 292
310 311 310 311 311 309 310 310 309 307 307 307 307 305 304 305 306 306 307 311 313 313 313 312 313 313 315 321 323 325 326 326 326 324 325 325 324 323 317 319 311 306 302 305 304 303 298 295 291
307 309 310 309 310 311 310 310 311 309 305 307 308 307 307 306 306 305 306 307 309 309 310 311 311 311 311 316 318 317 319 318 318 321 316 322 321 320 316 314 312 304 300 303 303 301 298 292 292
310 312 311 310 309 310 310 310 309 310 308 309 311 311 309 306 301 301 304 305 307 308 309 310 308 310 311 313 315 315 316 313 314 314 317 316 316 315 314 312 307 296 299 301 300 299 295 291 291
310 311 311 312 310 309 309 311 310 309 309 309 308 309 308 306 302 301 301 303 305 306 308 309 308 309 310 311 313 312 311 307 307 308 309 310 312 310 311 307 294 294 299 300 299 299 298 292 291
312 308 310 312 313 314 310 317 313 311 311 309 310 307 306 304 302 301 301 301 303 303 306 308 309 309 308 310 311 313 312 302 304 306 307 308 306 304 302 294 292 295 299 300 299 299 299 297 291
312 308 309 311 311 312 312 314 315 311 313 312 311 309 306 303 301 300 300 301 302 302 305 306 307 308 308 308 310 310 309 306 305 302 301 302 299 299 292 292 290 292 297 297 298 298 297 295 289
307 310 309 308 309 316 313 315 317 314 313 311 311 308 306 304 301 299 300 301 301 302 303 304 305 306 307 307 307 306 307 305 299 295 296 294 291 291 292 290 289 288 288 288 288 288 288 288 288
310 313 317 317 315 319 310 313 317 314 310 309 312 308 304 301 300 298 298 299 301 301 302 303 303 304 305 306 305 303 305 305 302 296 293 290 288 286 287 287 288 287 288 288 288 288 287 286 286
310 313 317 318 318 318 311 315 315 308 307 306 306 304 302 301 298 297 297 300 300 300 302 301 301 302 302 302 302 301 301 300 296 293 290 287 286 287 286 286 287 287 286 286 286 286 285 285 285
311 313 312 313 297 312 314 312 311 310 309 308 307 305 303 300 298 297 296 298 300 301 301 300 300 301 301 300 300 298 297 296 293 290 288 287 286 287 284 285 285 285 286 286 285 285 284 283 283
311 310 316 314 320 321 316 314 318 314 312 309 309 306 303 299 297 295 295 297 299 301 300 300 300 301 299 298 298 297 295 294 292 290 289 288 286 285 285 284 284 283 284 284 284 283 283 283 282
311 313 313 314 314 316 314 318 308 312 311 309 309 305 302 299 297 295 294 296 298 300 299 299 298 299 297 296 295 293 292 292 291 289 289 289 285 285 283 283 282 283 283 283 283 283 282 282 282
310 313 314 319 316 312 313 319 309 308 307 307 306 303 300 298 296 294 293 295 296 297 297 298 298 297 297 296 293 292 292 291 290 289 289 285 287 285 283 283 282 282 282 282 283 283 282 282 281
Wind_Speed
4 2 2 3 4 4 1 3 1 2 1 1 4 4 4 2 3 2 4 11 17 20 17 16 15 15 15 15 14 13 13 13 14 16 17 18 18 18 19 17 19 17 17 18 18 18 18 21 20
1 1 2 2 4 2 3 2 4 4 3 6 3 2 2 1 1 3 9 10 20 20 18 16 15 15 15 14 14 15 11 13 14 15 16 17 17 17 18 17 17 18 17 18 19 18 17 20 20
2 1 3 4 3 3 3 4 4 2 6 1 3 2 3 3 1 10 6 13 21 21 18 16 16 15 16 15 15 15 13 12 15 15 16 17 17 18 18 17 18 19 17 18 19 18 18 19 20
2 5 4 4 2 4 4 3 4 6 3 3 3 3 2 2 3 4 9 16 22 21 18 17 15 15 16 14 14 14 13 11 15 16 16 17 17 17 18 18 18 18 19 18 19 18 18 18 18
5 3 4 3 2 3 3 2 6 5 1 2 2 3 2 2 4 6 13 20 23 21 19 17 15 15 16 14 13 14 14 10 13 14 16 17 17 18 18 18 18 19 19 18 18 18 17 18 18
4 3 4 2 3 3 3 5 5 3 1 2 2 4 3 4 7 12 16 20 20 21 19 17 15 14 14 14 13 14 15 12 13 14 15 17 18 18 18 18 18 18 18 18 18 17 17 17 18
6 4 4 4 2 3 4 7 5 6 4 4 4 5 2 4 9 15 18 19 20 18 18 17 16 15 13 13 12 12 14 13 14 15 16 17 17 17 17 17 17 17 18 18 17 17 16 17 18
4 4 4 3 4 5 4 6 2 6 5 2 3 4 3 6 14 18 19 17 19 19 18 17 17 16 16 16 13 14 15 14 14 16 16 17 17 17 17 17 17 17 16 16 17 17 17 18 18
3 4 2 5 6 4 3 5 1 2 5 3 5 3 1 12 17 20 21 18 21 21 21 19 18 19 18 16 14 14 14 15 16 18 16 12 14 15 15 14 15 15 15 15 16 17 17 18 20
4 4 8 4 4 3 3 4 7 5 3 4 4 5 4 17 20 22 23 21 22 22 23 21 19 20 20 18 17 15 18 19 19 20 19 19 17 15 15 13 11 12 12 16 15 16 16 17 19
2 5 4 3 4 4 3 2 6 7 5 7 9 5 9 17 20 21 24 28 27 23 22 20 19 20 21 18 18 18 22 23 22 22 19 17 16 15 14 13 12 10 10 12 13 15 16 18 19
2 1 5 1 2 2 3 4 4 7 7 4 8 4 10 13 18 22 24 30 28 26 24 22 22 21 19 18 18 17 20 25 25 25 22 21 19 16 15 13 12 11 11 12 13 16 18 21 23
3 1 2 2 2 3 1 6 5 8 8 3 2 7 11 13 16 20 24 25 26 26 24 22 22 23 20 19 19 19 19 25 27 26 24 23 20 18 16 14 12 11 11 11 15 17 20 24 25
1 1 3 3 2 2 4 2 3 5 2 5 5 9 9 14 20 17 22 26 28 27 25 22 20 21 21 20 18 21 20 23 27 27 26 24 22 21 18 16 14 13 12 14 16 20 25 28 27
2 3 5 4 1 4 4 7 9 5 2 7 9 7 8 14 17 26 31 31 29 26 23 21 20 20 20 20 19 21 21 23 25 28 27 25 24 22 20 17 16 15 14 17 21 26 29 31 32
4 4 2 2 4 2 4 9 6 2 4 10 8 7 8 8 20 28 29 29 27 25 24 22 21 21 20 19 19 19 19 23 26 30 30 27 26 23 22 19 17 16 19 22 26 30 33 35 35
6 3 4 8 7 3 4 7 5 1 4 8 8 8 9 10 14 28 29 27 28 26 24 23 22 21 22 22 20 19 21 21 26 29 30 29 26 25 24 21 20 21 24 26 29 32 34 37 34
6 4 4 5 2 2 3 13 11 5 4 9 9 9 11 13 19 26 29 28 27 26 25 23 22 21 21 21 21 20 21 22 22 25 27 28 27 27 26 23 23 23 24 28 32 35 35 36 35
6 4 5 4 4 4 8 10 16 6 6 13 15 14 17 18 16 19 26 28 26 25 25 25 23 22 22 23 21 21 21 20 21 20 22 23 25 27 28 26 25 25 29 30 33 38 39 35 33
3 4 5 6 3 6 8 11 13 14 10 15 19 18 20 5 4 12 24 31 32 31 28 27 25 23 24 26 26 21 22 19 20 20 19 22 25 26 26 28 25 28 32 33 38 41 38 33 25
4 6 5 7 4 3 6 7 7 8 11 15 16 22 9 6 10 8 18 31 31 32 33 30 27 25 25 26 26 20 21 17 18 18 21 23 24 25 26 24 25 28 33 37 38 37 37 28 18
5 8 5 3 2 5 3 7 4 7 8 5 17 4 8 8 7 7 15 21 29 25 31 29 27 27 28 27 28 26 27 19 19 24 23 23 23 26 25 25 27 29 32 35 35 32 29 29 20
6 5 6 3 3 3 3 4 3 2 5 13 9 5 4 6 7 7 12 17 21 23 30 30 28 27 26 27 28 28 26 24 24 26 26 27 27 26 28 29 28 29 31 33 30 27 24 24 23
9 6 5 4 2 4 9 7 5 6 6 6 2 4 2 5 2 2 8 15 20 19 26 29 29 27 26 25 25 26 26 25 25 28 29 30 30 29 28 29 30 31 31 30 28 27 23 21 22
1 6 1 3 0 8 1 3 10 8 7 6 2 4 7 4 1 3 6 12 18 21 25 27 28 27 27 26 26 27 26 27 29 32 33 35 34 33 33 32 32 31 29 29 29 28 27 25 24
9 7 6 7 4 4 2 8 6 8 7 5 5 5 6 4 1 3 5 11 14 19 22 23 27 27 27 26 26 26 26 27 28 32 34 34 36 36 33 33 33 31 31 30 30 29 27 25 24
7 7 5 6 2 2 5 7 8 11 11 6 5 3 5 3 2 4 7 10 13 18 22 25 27 27 27 28 27 27 27 28 30 33 34 35 34 35 32 32 33 34 32 30 29 28 28 25 24
5 7 3 1 4 6 5 6 7 6 6 5 3 3 4 2 3 4 6 12 14 18 21 25 28 28 27 27 27 27 27 28 31 35 38 37 35 36 35 34 34 33 33 31 29 29 27 25 24
3 4 2 5 4 5 2 6 7 10 7 7 3 4 4 4 4 4 6 12 17 21 25 28 28 28 29 29 29 27 27 27 29 34 36 36 39 37 36 35 34 33 33 31 30 28 27 25 24
1 7 6 5 5 4 2 10 2 5 7 6 5 6 5 4 6 6 9 13 17 22 26 30 30 30 31 30 30 30 31 32 31 33 35 40 39 36 37 37 35 33 30 30 28 29 25 23 23
Wind_Direction
328 315 178 22 56 62 318 263 330 176 246 139 102 150 184 105 164 188 153 152 156 160 158 162 160 153 147 141 136 121 107 100 93 90 88 85 84 83 83 83 86 84 83 85 81 87 85 81 76
309 217 51 79 84 58 275 254 218 196 150 127 100 89 100 143 204 134 136 172 166 164 161 161 159 157 153 148 139 130 117 110 99 93 90 87 86 86 86 86 85 85 86 86 87 87 84 81 77
132 87 79 88 102 173 214 220 198 138 147 198 107 38 151 171 164 157 148 151 163 166 164 163 162 161 158 154 148 139 133 120 109 103 99 96 93 88 89 88 88 88 92 89 86 86 83 80 78
202 35 45 84 195 231 199 205 184 127 251 221 130 101 287 230 168 181 176 166 165 167 167 166 166 165 163 158 155 148 140 129 115 110 104 100 96 95 93 89 87 88 89 90 86 87 87 82 80
51 57 67 82 252 264 242 223 160 160 211 157 168 191 214 238 193 167 165 168 169 168 169 170 169 168 166 165 160 153 149 136 120 112 108 103 98 94 91 89 88 86 85 86 87 85 85 85 84
48 94 73 206 244 250 242 161 147 173 164 157 125 151 220 186 176 163 160 164 170 168 170 171 171 172 172 170 167 161 157 147 132 122 114 108 104 101 100 97 94 92 92 89 86 87 85 85 85
115 87 180 172 234 293 207 147 170 176 174 239 148 148 250 206 176 167 162 164 171 173 172 174 174 175 177 177 170 167 164 156 140 132 124 116 109 103 97 94 92 92 92 91 90 87 87 87 86
105 90 120 218 198 247 190 179 129 157 210 103 183 201 222 191 171 169 169 173 177 179 184 179 180 181 181 177 175 174 173 166 154 141 130 123 114 108 105 103 100 96 91 90 89 90 89 87 88
132 69 178 219 159 234 146 177 91 143 126 230 205 179 196 165 169 170 175 179 180 183 187 192 193 191 188 177 182 181 179 174 163 150 140 131 130 126 123 118 113 106 100 96 95 94 92 93 93
84 116 213 201 196 209 193 180 170 152 176 233 263 236 209 171 174 175 180 183 185 186 188 196 202 199 191 186 186 192 182 180 174 166 162 160 157 150 146 141 131 126 120 110 101 95 94 94 95
157 176 190 218 225 185 178 203 167 145 229 214 207 198 179 182 187 187 189 190 188 189 191 192 195 196 199 198 196 191 190 183 181 181 176 172 168 165 162 156 149 139 123 111 107 105 99 99 102
130 183 168 230 219 142 191 136 195 199 224 175 223 182 170 187 196 195 193 195 193 193 193 194 194 199 198 209 207 204 207 193 187 188 187 185 181 178 174 172 157 149 134 124 116 111 109 108 109
141 208 210 304 291 249 314 245 226 242 235 236 118 178 190 196 203 207 204 200 197 197 195 195 194 202 205 206 210 215 215 201 194 193 192 192 191 188 184 177 167 156 141 132 124 120 119 115 112
133 81 300 288 230 233 210 257 137 272 160 196 194 215 208 204 200 198 202 200 199 199 199 198 198 201 201 207 208 215 215 213 203 199 198 199 199 193 189 181 172 161 147 137 131 130 125 118 116
95 348 330 243 1 239 177 285 234 230 186 235 231 237 232 224 205 208 207 205 203 202 202 203 204 205 207 206 212 219 210 211 210 204 201 202 203 199 193 186 176 167 154 145 136 133 127 122 119
56 43 11 271 158 290 153 271 267 9 202 250 252 248 245 240 224 223 218 214 210 209 206 206 207 209 207 215 217 209 206 205 205 203 202 204 205 203 192 184 178 168 155 151 141 140 132 127 124
7 223 211 313 202 126 169 265 252 181 204 264 253 245 242 248 239 235 223 217 212 210 210 209 210 211 208 204 215 213 201 207 199 201 202 203 204 201 196 188 178 162 157 153 148 141 138 133 126
197 210 235 237 215 168 206 262 274 242 239 252 262 251 243 239 235 223 220 216 212 211 210 211 210 211 209 206 208 205 198 198 209 193 201 199 198 204 198 184 178 173 162 160 153 147 142 137 131
138 179 210 239 238 186 229 241 260 248 230 260 257 249 246 234 243 221 216 210 207 208 207 208 208 209 210 195 196 191 189 188 193 200 193 193 198 196 193 186 182 166 169 166 163 150 146 135 135
159 193 246 282 247 191 271 250 250 256 238 232 250 254 248 230 162 186 205 204 205 205 205 205 205 206 202 201 196 191 185 185 188 192 196 195 195 195 195 189 175 173 172 170 167 158 149 144 151
202 195 202 230 322 238 313 271 235 269 243 249 249 248 278 228 209 200 195 200 200 204 203 202 201 197 199 201 197 187 182 181 184 189 189 187 192 192 186 178 173 178 178 172 174 166 160 156 167
231 202 177 195 61 256 11 289 256 240 250 254 253 229 243 229 222 199 197 195 198 200 203 202 198 195 200 200 198 194 190 181 195 189 186 184 184 179 176 174 175 176 177 173 174 172 173 170 159
222 130 163 132 180 354 316 274 237 145 266 255 277 306 299 265 232 211 202 205 199 196 200 198 195 197 199 199 204 200 195 192 187 185 181 179 179 178 175 175 177 172 174 176 180 176 184 182 160
150 85 63 63 97 268 197 196 154 188 211 253 199 111 349 337 290 219 198 192 185 191 194 193 193 198 201 201 204 207 203 197 188 182 179 177 177 177 178 177 176 170 165 162 158 152 156 154 147
157 116 286 322 3 241 20 250 254 280 229 234 252 263 285 334 10 182 163 165 169 182 181 186 193 196 198 201 206 206 209 206 199 192 185 179 175 174 172 172 168 166 163 159 155 149 145 141 135
199 173 168 211 205 267 147 238 249 235 282 269 292 268 300 308 220 207 185 178 185 188 186 184 187 197 200 202 205 207 208 205 201 192 186 177 178 175 172 171 167 162 157 152 149 142 138 136 131
195 208 165 104 48 19 224 283 278 258 276 275 254 301 295 280 190 189 187 187 187 187 188 191 188 199 201 203 206 206 207 204 197 193 189 184 181 175 174 169 165 162 159 156 151 145 139 136 132
170 163 100 319 171 239 262 272 227 252 193 220 132 320 317 138 163 173 189 190 191 191 191 195 199 199 201 204 208 207 205 203 201 196 190 186 182 177 175 171 167 163 158 154 151 143 141 139 135
148 206 131 127 160 183 285 261 219 222 177 170 176 326 297 189 197 195 200 198 197 194 193 196 199 199 199 203 202 202 202 204 202 198 194 186 182 177 177 173 170 164 159 156 153 148 148 145 141
67 197 155 185 211 234 155 259 195 203 160 164 204 228 189 177 189 183 199 194 194 196 194 198 199 202 206 205 204 201 199 200 201 203 197 188 183 182 182 176 174 167 164 159 158 153 153 151 149